Location: Santa Paolina
(41.0167°N, 14.8500°E)
Time: 05:37:15
(UTC+00:00)

Daily predictions for brighter satellites

Satellite Brightness Start Highest point End
(mag) Time Altitude Azimuth Time Altitude Azimuth Time Altitude Azimuth
Lacrosse 5 rocket 2.3 00:00:16 10° NW 00:03:22 42° N 00:03:22 42° N
Resurs 1-4 Rocket 4.3 00:02:34 10° ENE 00:05:29 15° E 00:07:23 13° ESE
Cosmos-2242 4.1 00:01:34 10° NNW 00:04:25 36° NW 00:04:25 36° NW
Cosmos 2227 Rocket 2.9 00:04:54 10° NW 00:09:27 38° W 00:09:27 38° W
Gbstr 26 Del rocket 4.4 00:04:56 10° WNW 00:09:37 44° WSW 00:09:37 44° WSW
Cosmos 2237 4.3 00:16:13 58° SE 00:16:49 61° ESE 00:22:25 10° NNE
CZ-2D R/B 4.1 00:15:30 10° NE 00:18:55 17° E 00:20:52 15° ESE
Cosmos 1238 Rocket 3.7 00:15:08 10° N 00:20:10 56° E 00:20:48 51° ESE
IDEFIX/ARIANE 42P 3.0 00:15:46 10° NNE 00:20:47 48° E 00:21:27 46° SE
Cosmos 2360 Rocket 3.9 00:21:19 19° ESE 00:22:48 21° E 00:26:53 10° NE
Cosmos 2278 4.2 00:26:14 43° SE 00:27:08 46° ESE 00:32:31 10° NE
Meteor 2-11 Rocket 4.4 00:26:40 57° S 00:28:00 81° E 00:34:08 10° N
H-2A R/B 3.6 00:24:57 10° NE 00:28:29 25° E 00:28:59 24° ESE
Cosmos 2221 2.6 00:24:38 10° N 00:28:33 73° NNE 00:28:33 73° NNE
Okean 1 4.3 00:29:37 10° NNW 00:32:02 36° NW 00:32:02 36° NW
Cosmos 1346 Rocket 3.5 00:35:27 45° ENE 00:35:27 45° ENE 00:38:29 10° NNE
Nimbus 7 Rocket 4.5 00:29:33 10° N 00:35:35 70° WNW 00:36:59 52° SW
Cosmos 1812 Rocket 3.8 00:31:32 10° NNW 00:35:20 58° NW 00:35:20 58° NW
Cosmos 2150 Rocket 4.4 00:36:23 48° W 00:37:13 52° WNW 00:42:32 10° N
Cosmos 2219 Rocket 4.3 00:35:10 11° SE 00:37:42 15° E 00:40:46 10° ENE
CENTAUR R/B 2.6 00:37:30 43° SE 00:38:29 47° ESE 00:44:37 10° NE
Nadezhda 1 Rocket 4.0 00:33:37 10° NNW 00:39:43 61° W 00:40:50 52° SW
H-2A R/B 3.5 00:41:17 32° NW 00:41:17 32° NW 00:43:45 10° NNW
Okean 1-7 Rocket 3.8 00:43:00 56° WNW 00:43:00 56° WNW 00:47:20 10° N
Meteor 2-6 Rocket 4.4 00:37:25 10° NNW 00:43:08 59° W 00:44:03 53° SW
Cosmos 2322 Rocket 3.1 00:43:02 32° SE 00:44:37 38° ESE 00:49:47 10° NE
Cosmos 1745 Rocket 4.3 00:44:17 45° WSW 00:45:47 55° W 00:52:02 10° N
Cosmos 1825 Rocket 3.4 00:46:00 83° W 00:46:01 83° W 00:50:24 10° N
NOSS 3-2 (A) 4.5 00:50:18 21° SE 00:51:33 24° ESE 00:55:49 10° ENE
ADEOS II 3.8 00:48:04 10° NE 00:52:22 25° E 00:55:07 17° SE
MOZ.5/SAFIR/RUBIN 5/SL-8 4.0 00:52:02 44° SE 00:53:24 67° ENE 00:58:03 10° N
ATLAS 5 CENTAUR R/B 3.4 00:49:13 10° NNW 00:53:27 36° NE 00:58:36 10° ESE
OAO 3 Rocket 4.4 00:55:36 28° SE 00:55:36 28° SE 00:58:15 10° ESE
Meteor 1-25 Rocket 4.3 00:54:41 46° S 00:56:24 75° E 01:02:06 10° NNE
ALOS 4.0 00:53:48 10° NE 00:57:31 24° E 00:59:35 18° SE
Cosmos 1709 Rocket 4.2 00:57:16 44° SW 00:59:05 60° W 01:05:21 10° N
Cosmos 2263 Rocket 3.1 00:54:21 10° NW 00:58:41 30° W 00:58:41 30° W
CZ-2C R/B 4.4 00:59:39 10° NNW 01:03:15 22° WNW 01:04:01 21° W
Meteor 1-27 Rocket 4.0 00:59:57 10° N 01:05:54 73° E 01:09:15 27° SSE
Cosmos 2082 4.0 01:00:37 10° NW 01:05:57 44° WSW 01:06:25 43° WSW
MSX 3.8 01:02:52 10° N 01:08:35 69° WNW 01:10:27 43° SW
Cosmos 2181 Rocket 4.1 01:04:26 10° N 01:10:35 73° E 01:14:24 24° SSE
Uosat 12 SS-18 rocket 4.3 01:12:41 49° SSE 01:13:26 56° ESE 01:17:55 10° NE
SL-16 R/B 2.2 01:13:38 43° SW 01:15:28 69° WNW 01:21:09 10° NNE
FENGYUN 3A 3.6 01:11:17 10° NNE 01:16:43 86° WNW 01:18:42 41° SSW
Cosmos 2333 Rocket 2.2 01:15:34 40° S 01:17:42 78° ESE 01:23:23 10° NNE
Cosmos 2219 4.4 01:16:39 10° NW 01:20:47 24° W 01:20:47 24° W
USA 276 3.2 01:22:20 34° N 01:22:20 34° N 01:24:27 10° NE
CZ-3 Stage 3 3.7 01:22:27 24° S 01:24:44 29° SE 01:37:32 10° E
BREEZE M DEB (TANK) 4.1 01:22:25 10° NW 01:25:03 43° NNE 01:31:03 10° ESE
Cosmos 1842 Rocket 3.5 01:20:50 10° N 01:25:15 83° E 01:26:56 37° SSE
Cosmos 44 Rocket 3.5 01:25:06 40° WSW 01:26:27 55° NW 01:31:06 10° NNE
ATLAS 2AS CENTAUR R/B 3.2 01:22:05 10° NW 01:28:01 34° WSW 01:29:12 32° SW
Cosmos 1743 3.6 01:28:39 30° WNW 01:28:39 30° WNW 01:31:16 10° NNW
Meteor 1-5 Rocket 4.2 01:26:02 33° S 01:28:47 87° E 01:34:24 10° N
Meteor 2-4 Rocket 3.9 01:23:51 10° N 01:29:11 66° E 01:33:35 15° SSE
Cosmos 1980 Rocket 4.4 01:26:25 10° WNW 01:29:16 14° NW 01:32:07 10° NNW
Cosmos 1707 2.4 01:28:37 10° N 01:31:54 70° E 01:32:32 52° SE
NPP 4.3 01:30:25 10° N 01:35:29 43° WNW 01:37:32 30° WSW
KORONAS-FOTON 3.5 01:38:09 10° NNW 01:41:40 65° W 01:42:14 54° SW
Nadezhda 3 Rocket 4.3 01:35:51 10° N 01:42:01 65° E 01:48:07 10° SSE
Cosmos 1023 Rocket 4.4 01:37:11 10° NNW 01:42:19 67° WSW 01:45:42 22° S
Cosmos 1140 Rocket 3.4 01:39:16 10° NNW 01:44:24 69° WSW 01:48:04 19° S
Resurs 1-4 Rocket 2.1 01:40:26 10° N 01:45:44 68° WNW 01:48:25 29° SSW
Cosmos 1076 Rocket 4.5 01:46:03 28° W 01:46:54 31° WNW 01:50:42 10° NNW
Cosmos 1842 2.8 01:47:48 10° NNW 01:51:11 69° W 01:52:08 42° SSW
Cosmos 1844 Rocket 2.8 01:49:53 10° NNW 01:55:21 55° WSW 01:59:59 14° S
SJ 16-02 4.5 01:53:24 10° NNE 01:55:34 14° ENE 01:57:44 10° E
Cosmos 2184 Rocket 4.1 01:54:15 24° SSW 01:58:16 66° W 02:04:39 10° N
Cosmos 2333 4.1 01:55:28 26° SSW 01:58:46 80° WNW 02:04:24 10° NNE
CZ-2D R/B 2.3 01:54:09 10° N 01:59:14 56° WNW 02:02:07 25° SW
Cosmos 407 Rocket 3.5 01:54:05 10° NNW 01:59:22 87° ENE 02:04:40 10° SSE
Alouette 2 Rocket 4.3 01:57:00 28° SW 01:59:27 58° WNW 02:06:11 10° N
Cosmos 1844 3.8 01:54:07 10° NNW 01:59:42 57° WSW 02:05:19 10° S
IDEFIX/ARIANE 42P 4.1 01:56:03 10° NNW 01:59:53 21° WNW 02:02:09 16° W
Cosmos 1151 Rocket 3.5 01:57:05 10° N 02:01:20 60° E 02:05:33 10° SSE
Cosmos 1536 4.0 01:58:20 11° SSE 02:01:33 35° E 02:04:58 10° NNE
EP 1 4.5 02:00:16 10° NNW 02:02:59 82° NE 02:06:15 10° SE
H-2A R/B 3.2 02:00:11 10° N 02:03:50 28° WNW 02:05:29 22° WSW
SeaSat 1 2.5 02:00:31 11° S 02:05:00 53° WSW 02:09:48 10° NW
ATLAS CENTAUR R/B 2.1 02:03:45 20° S 02:05:46 38° ESE 02:09:16 10° NE
Cosmos 2360 Rocket 2.5 02:03:04 24° SW 02:06:18 53° WNW 02:11:49 10° NNE
Cosmos 2154 Rocket 4.1 02:06:22 20° SSW 02:10:42 60° W 02:16:57 10° N
NOSS 2-2 (C) 3.5 02:09:04 23° S 02:10:53 45° ESE 02:13:50 10° NE
ARIANE 6 FM1 Upper Stage 2.5 02:10:40 27° SW 02:12:48 83° NW 02:16:48 10° NE
Delta 2 Rocket 3.9 02:16:59 23° WSW 02:19:09 40° S 02:23:07 10° ESE
Cosmos 2219 Rocket 2.2 02:16:52 19° SSW 02:20:55 71° WNW 02:26:32 10° NNE
Cosmos 405 Rocket 2.2 02:24:32 17° S 02:26:56 89° E 02:30:11 10° N
H-2A R/B 2.2 02:22:19 10° NNE 02:27:13 67° ESE 02:32:03 10° S
Cosmos 2322 Rocket 3.3 02:24:50 15° WSW 02:28:40 31° WNW 02:33:39 10° N
CENTAUR R/B 3.6 02:24:36 12° W 02:29:16 33° NW 02:35:30 10° NNE
Iridium 4 Rocket 4.4 02:24:52 10° SSE 02:30:28 55° E 02:35:49 10° N
H-2A R/B 4.0 02:27:10 10° NNE 02:30:58 51° E 02:34:43 10° S
In-Cosmos 22 4.5 02:26:12 10° N 02:31:30 68° E 02:36:52 10° SSE
ADEOS II 2.7 02:27:10 10° N 02:32:01 40° WNW 02:35:57 15° SW
NOSS 3-2 (C) 3.4 02:27:56 13° SSW 02:32:15 62° ESE 02:37:54 10° NE
Cosmos 1954 Rocket 4.4 02:27:59 10° NNW 02:33:09 65° ENE 02:38:19 10° SSE
Meteor 1-28 Rocket 3.0 02:30:15 10° SSE 02:33:35 76° ENE 02:36:57 10° N
ALOS 3.2 02:30:28 10° N 02:34:32 32° WNW 02:37:41 15° SW
ATLAS 5 CENTAUR R/B 2.6 02:31:51 10° NW 02:36:20 35° WSW 02:41:41 10° S
OAO 3 Rocket 3.7 02:33:03 14° WSW 02:36:35 36° S 02:40:52 10° ESE
Meteor 1-14 Rocket 4.4 02:31:21 10° S 02:37:13 86° E 02:43:13 10° N
Lacrosse 4 Rocket 3.3 02:34:52 10° SSE 02:38:11 25° ESE 02:41:33 10° NE
ACS3 Solar Sail 4.3 02:35:25 10° NE 02:39:04 16° E 02:42:46 10° SE
DMSP B5D2-2 4.3 02:35:30 10° S 02:40:33 49° W 02:45:36 10° NNW
NOSS 3-2 (A) 3.7 02:37:39 14° WSW 02:41:46 45° NW 02:47:27 10° NNE
Cosmos 2251 Rocket 3.5 02:36:46 10° NNW 02:42:00 64° WSW 02:47:10 10° S
Cosmos 1624 Rocket 4.0 02:37:50 11° SSW 02:42:50 78° WNW 02:48:08 10° NNE
UNK 4.4 02:38:36 10° SSE 02:43:01 57° ENE 02:47:30 10° N
Cosmos 1420 Rocket 4.4 02:39:14 14° SW 02:43:35 48° WNW 02:48:39 10° N
Cosmos 2218 Rocket 4.2 02:39:02 10° S 02:45:12 75° E 02:51:21 10° N
Envisat 3.9 02:41:13 10° N 02:45:45 34° WNW 02:49:58 11° SW
SL-16 R/B 2.7 02:46:53 10° S 02:53:01 58° WSW 02:59:13 10° NNW
Milstar 3 Cent rocket 3.5 02:49:25 11° SW 02:53:48 22° S 02:57:30 10° SE
Cosmos 2278 Rocket 4.3 02:49:29 10° N 02:54:34 32° ENE 02:59:36 10° ESE
NOSS 2-2 (E) 3.0 02:51:39 10° SSW 02:55:15 69° ESE 02:58:20 10° NE
Cosmos 1190 Rocket 4.0 02:50:34 10° NNW 02:55:40 62° WSW 03:00:46 10° S
Cosmos 2056 Rocket 3.7 02:50:56 10° SSW 02:56:02 57° WNW 03:01:07 10° NNE
Cosmos 1437 Rocket 2.7 02:52:51 10° N 02:56:33 79° E 03:00:10 10° SSE
Cosmos 1371 Rocket 4.3 02:53:27 10° SW 02:58:39 56° WNW 03:03:52 10° N
SL-16 R/B 4.3 02:58:31 10° WNW 03:00:39 12° NW 03:02:47 10° NNW
Cosmos 1805 4.2 02:58:22 10° SW 03:01:13 25° WNW 03:04:10 10° NNW
Cosmos 2333 Rocket 4.0 02:58:52 10° W 03:02:38 18° NW 03:06:24 10° N
JB-3 4.1 03:00:27 10° S 03:04:10 73° WSW 03:07:59 10° NNW
SL-14 R/B 3.1 03:02:18 10° N 03:06:03 84° W 03:09:48 10° S
Centaur D-1A AC-31 4.0 02:48:58 10° WSW 03:07:21 29° S 03:12:25 10° SE
SL-8 Rocket 4.1 03:01:32 10° SSW 03:07:36 61° W 03:13:47 10° N
CZ-3 R/B 4.0 02:34:15 10° W 03:08:40 47° SSW 03:18:25 10° SE
PAYLOAD A 4.2 03:05:49 10° NNE 03:11:12 84° ESE 03:16:21 10° SSW
ADEOS Rocket 3.8 03:04:21 10° NNE 03:12:07 79° ESE 03:19:50 10° S
NOSS 2-2 (D) 3.0 03:09:40 10° SW 03:13:10 60° NW 03:16:13 10° NNE
Cosmos 1328 Rocket 3.5 03:09:44 10° NNW 03:14:00 67° W 03:18:14 10° S
ARGOS Delta rocket 4.3 03:10:36 10° N 03:15:36 50° WNW 03:20:18 10° SSW
Meteor 1-11 Rocket 3.8 03:09:57 10° SSW 03:15:36 81° W 03:21:27 10° N
